Weather Roundup
Issued by NWS Springfield, MO

Home | Current Version | Previous Version | Text Only | Print | Product List | Glossary On
Versions: 1 2 3 4 5 6 7 8 9 10 11 12 13 14 15 16 17 18 19 20 21 22 23 24 25 26 27 28 29 30 31 32 33 34 35 36 37 38 39 40 41 42 43 44 45 46 47 48 49 50
719
NZUS99 KSGF 291007
HRRSGF

HOURLY WEATHER
NATIONAL WEATHER SERVICE SPRINGFIELD MO
500 AM CDT SAT APR 29 2017

......SGF CWA......

CITY           SKY/WX    TMP DP  RH WIND       PRES   REMARKS
SPRINGFIELD    CLOUDY    60  58  92 NE13      29.75R
JOPLIN         CLOUDY    57  56  96 N9G20     29.72R THUNDER
WEST PLAINS    CLOUDY    65  63  93 N10       29.80R
ROLLA          LGT RAIN  57  57 100 E12       29.86F
OSAGE BEACH    LGT RAIN  57  56  96 E13G24    29.78F
BRANSON        CLOUDY    61  61 100 CALM      29.72F

......SURROUNDING SGF CWA......

CITY           SKY/WX    TMP DP  RH WIND       PRES   REMARKS
CHANUTE        TSTM      49  47  93 N17       29.82R FOG
PARSONS        TSTM      53  51  93 N20       29.79R FOG
COFFEYVILLE    CLOUDY    55  54  96 N17       29.73R
EMPORIA        LGT RAIN  44  44 100 NE25      29.75F FOG
GROVE OK       CLOUDY    63  61  94 NW9       29.69R
ROGERS AR      LGT RAIN  63  61  94 NE8       29.70R
SILOAM SPRINGS CLOUDY    64  59  82 SE9       29.67R
HARRISON AR    CLOUDY    63  62  97 N6        29.71F THUNDER
NEAR YELLVILLE CLOUDY   N/A N/A N/A N3        29.68F

......KANSAS AND MISSOURI......

CITY           SKY/WX    TMP DP  RH WIND       PRES   REMARKS
KANSAS CTY INT CLOUDY    46  45  96 NE17      29.90F
DOWNTOWN KC    CLOUDY    47  46  97 NE10G18   29.90S
COLUMBIA       RAIN      55  55 100 N13       29.91R
SEDALIA        FOG       51  51 100 NE16G22   29.87F VSB 1
ST JOSEPH      CLOUDY    45  45 100 NE12      29.94R
ST LOUIS       LGT RAIN  59  55  87 W9        29.95R
SPIRIT OF STL  RAIN      58  58 100 N7        29.90F FOG
KIRKSVILLE     CLOUDY    46  37  71 NE15      29.98F HAZE
WICHITA        TSTM      45  43  93 N22G31    29.84R
TOPEKA         CLOUDY    46  45  96 NE14      29.89F
OLATHE         CLOUDY    45  45 100 N12       29.87R FOG

......TENNESSEE......

CITY           SKY/WX    TMP DP  RH WIND       PRES   REMARKS
MEMPHIS        CLOUDY    77  69  76 S13       29.84R
NASHVILLE      CLOUDY    74  68  81 SE9       29.97R

......ARKANSAS.......

CITY           SKY/WX    TMP DP  RH WIND       PRES   REMARKS
FAYETTEVILLE   CLOUDY    65  65 100 E6        29.68S
FT SMITH       MOCLDY    72  67  84 NE5       29.62R HAZE
LITTLE ROCK    CLOUDY    77  72  84 S13       29.74R FOG

......OKLAHOMA.......

CITY           SKY/WX    TMP DP  RH WIND       PRES   REMARKS
TULSA          TSTM      62  59  90 W30G52    29.70R
PONCA CITY     TSTM      53  50  89 NE14      29.74R
MCALESTER      CLOUDY    78  70  76 S12G25    29.58R
OKLAHOMA CITY  LGT RAIN  57  56  96 NE29G35   29.48F

......IOWA............

CITY           SKY/WX    TMP DP  RH WIND       PRES   REMARKS
DES MOINES     CLOUDY    45  34  65 NE17      30.02F
QUAD CITIES    CLOUDY    48  41  76 NE18      30.08R

......ILLINOIS........

CITY           SKY/WX    TMP DP  RH WIND       PRES   REMARKS
QUINCY         LGT RAIN  51  50  96 NE15      29.97F FOG
CHICAGO        CLOUDY    46  37  71 NE16G25   30.07S




USA.gov is the U.S. government's official web portal to all federal, state and local government web resources and services.